This is the latest recevied weather packets stored in our database for station/object I1SXT-13. If no packets are shown the sender has not sent any weather packets the latest 10 day(s).
| Time | Temp. | Humidity | Pressure | Rain* | Wind** | Luminosity | Snow |
|---|---|---|---|---|---|---|---|
| 1778228966 | 21.11° C | 62% | 1014.7 hPa | 0 mm | - | - | - |
| 1778228669 | 21.11° C | 52% | 1014.3 hPa | 0 mm | - | - | - |
| 1778228365 | 21.11° C | 54% | 1014 hPa | 0 mm | - | - | - |
| 1778228068 | 21.11° C | 63% | 1013.9 hPa | 0 mm | - | - | - |
| 1778227764 | 20.56° C | 61% | 1013.7 hPa | 0 mm | - | - | - |
| 1778227467 | 20.56° C | 61% | 1014.6 hPa | 0 mm | - | - | - |
| 1778227170 | 20° C | 67% | 1014 hPa | 0 mm | - | - | - |
| 1778226866 | 20° C | 65% | 1013.9 hPa | 0 mm | - | - | - |
| 1778226568 | 20° C | 69% | 1013.9 hPa | 0 mm | - | - | - |
| 1778226264 | 19.44° C | 65% | 1013.8 hPa | 0 mm | - | - | - |
| 1778225967 | 19.44° C | 70% | 1013.9 hPa | 0 mm | - | - | - |
| 1778225670 | 18.89° C | 65% | 1013.4 hPa | 0 mm | - | - | - |
| 1778225069 | 18.33° C | 73% | 1014.2 hPa | 0 mm | - | - | - |
| 1778224765 | 18.33° C | 72% | 1013.4 hPa | 0 mm | - | - | - |
| 1778224467 | 17.78° C | 79% | 1013.4 hPa | 0 mm | - | - | - |
| 1778223866 | 17.22° C | 75% | 1013.9 hPa | 0 mm | - | - | - |
| 1778223569 | 16.67° C | 77% | 1013.9 hPa | 0 mm | - | - | - |
| 1778223265 | 16.67° C | 81% | 1013.9 hPa | 0 mm | - | - | - |
| 1778222968 | 16.67° C | 81% | 1013.5 hPa | 0 mm | - | - | - |
| 1778222663 | 16.11° C | 80% | 1014.2 hPa | 0 mm | - | - | - |
| 1778222366 | 16.11° C | 81% | 1013.8 hPa | 0 mm | - | - | - |
| 1778222069 | 16.11° C | 81% | 1013.5 hPa | 0 mm | - | - | - |
| 1778221765 | 15.56° C | 80% | 1013.6 hPa | 0 mm | - | - | - |
| 1778221468 | 15° C | 79% | 1013.7 hPa | 0 mm | - | - | - |
| 1778221164 | 14.44° C | 81% | 1014.1 hPa | 0 mm | - | - | - |
* Rain since midnight (hover to see other rain measurements)
** Current wind speed in m/s (hover to see current wind gust speed)